Home > Weather > Warburg > Past weeks

Flag for Germany Weather for the Past 2 Weeks in Warburg, North Rhine-Westphalia, Germany

Now
48 °F

Sunny.


Feels Like: 45 °F
Forecast: 39 / 48 °F
Wind: 8 mph from South

Location: Kassel / Calden

Current Time: Apr 29, 2016 at 10:07:39 PM

Latest Report: Apr 29, 2016 at 8:50 PM


Visibility: 10 mi

Pressure: 30.01 "Hg

Humidity: 50%

Dew Point: 30 °F

Location of WarburgLocation

Historic Weather in Warburg — Graph

°F

Warburg Temperature Yesterday

Maximum temperature yesterday: 46 °F (at 2:20 PM)
Minimum temperature yesterday: 36 °F (at 7:20 AM)
Average temperature yesterday: 42 °F

High & Low Weather Summary for the Past Weeks

 TemperatureHumidityPressure
High63 °F (Apr 21, 4:20 PM)100% (Apr 20, 6:50 AM)30.45 "Hg (Apr 20, 6:50 AM)
Low32 °F (Apr 24, 7:20 PM)32% (Apr 21, 5:20 PM)29.45 "Hg (Apr 26, 1:20 PM)
Average46 °F65%29.91 "Hg
* Reported Apr 15 7:20 AM — Apr 29 8:50 PM, Warburg, Weather by CustomWeather, © 2016

Note: Actual official high and low records may vary slightly from our data, if they occured in-between our weather recording intervals... More about our weather records

Advertising

Warburg Weather History for the Previous 24 Hours

Scroll right to see more
 ConditionsComfort  
Time TempWeatherWind HumidityBarometerVisibility
8:50 PM
Fri, Apr 29
48 °FSunny.8 mph50%30.01 "Hg10 mi
7:50 PM50 °FSunny.13 mph47%30.01 "Hg10 mi
6:50 PM52 °FSunny.12 mph47%29.98 "Hg10 mi
6:20 PM52 °FSunny.14 mph44%29.98 "Hg10 mi
5:50 PM52 °FSunny.16 mph47%29.98 "Hg10 mi
5:20 PM52 °FSunny.13 mph47%30.01 "Hg10 mi
4:50 PM52 °FSunny.17 mph44%30.01 "Hg10 mi
4:20 PM52 °FSunny.17 mph44%29.98 "Hg10 mi
3:50 PM52 °FSunny.18 mph44%29.98 "Hg10 mi
3:20 PM52 °FPassing clouds.18 mph44%29.98 "HgN/A
2:50 PM54 °FPartly sunny.16 mph47%29.98 "HgN/A
2:20 PM52 °FPartly sunny.18 mph47%30.01 "HgN/A
1:50 PM52 °FScattered clouds.17 mph44%30.01 "HgN/A
1:20 PM50 °FPartly sunny.15 mph47%29.98 "HgN/A
12:50 PM52 °FBroken clouds.16 mph47%30.01 "HgN/A
12:20 PM50 °FBroken clouds.15 mph47%29.98 "HgN/A
11:50 AM48 °FMore clouds than sun.14 mph58%30.01 "HgN/A
11:20 AM48 °FOvercast.14 mph54%30.01 "HgN/A
10:50 AM46 °FOvercast.10 mph66%30.01 "HgN/A
9:50 AM43 °FPartly sunny.8 mph71%30.01 "HgN/A
9:20 AM41 °FSunny.8 mph76%30.01 "Hg10 mi
8:50 AM41 °FSunny.8 mph70%30.01 "Hg10 mi
8:20 AM39 °FSunny.6 mph75%30.01 "Hg10 mi
7:50 AM37 °FSunny.5 mph81%30.01 "Hg10 mi
Weather by CustomWeather, © 2016

See weather overviewHow to use our weather pages